Weather History for Atka, AK

Change the Weather History Date:

Saturday, November 29, 2014

  Actual Average (PADK) Record (PADK)
Temperature  
Mean Temperature 44 °F -  
Max Temperature 48 °F 39 °F 54 °F (1961)
Min Temperature 39 °F 30 °F 12 °F (1969)
Degree Days  
Heating Degree Days 22    
Moisture  
Dew Point 38 °F    
Average Humidity 81    
Maximum Humidity 93    
Minimum Humidity 70    
Precipitation  
Precipitation 0.00 in - - ()
Sea Level Pressure  
Sea Level Pressure 29.79 in    
Wind  
Wind Speed 21 mph (ESE)    
Max Wind Speed 37 mph    
Max Gust Speed 46 mph    
Visibility 5 miles    
Events      
Averages and records for this station are not official NWS values.
T = Trace of Precipitation, MM = Missing Value Source: NWS Daily Summary

Daily Weather History Graph

Daily Weather History Graph

Search for Another Location

Airport:

Trip Planner

Search our weather history database for the weather conditions in past years. The results will help you decide how hot, cold, wet, or windy it might be!

Date:

Astronomy

Nov. 29, 2014 Rise Set
Actual Time 9:21 AM HAST 5:29 PM HAST
Civil Twilight 8:41 AM HAST 6:08 PM HAST
Nautical Twilight 7:58 AM HAST 6:51 PM HAST
Astronomical Twilight 7:17 AM HAST 7:32 PM HAST
Moon 2:21 PM HAST (11/29) 1:06 AM HAST (11/29)
Length of Visible Light 9h 27m
Length of Day
8h 08m
First Quarter, 56% of the Moon is Illuminated
Nov 29
First Quarter
Dec 6
Full
Dec 14
Last Quarter
Dec 21
New
Dec 28
First Quarter

Hourly Weather History & Observations

Time (HAST) Temp. Windchill Dew Point Humidity Pressure Visibility Wind Dir Wind Speed Gust Speed Precip Events Conditions
12:16 AM 39.2 °F 33.0 °F 30.2 °F 70% 30.23 in 10.0 mi SSE 9.2 mph - N/A   Overcast
12:36 AM 39.2 °F 32.5 °F 32.0 °F 75% 30.23 in 10.0 mi SE 10.4 mph - N/A   Overcast
12:56 AM 39.2 °F 32.5 °F 32.0 °F 75% 30.22 in 10.0 mi ESE 10.4 mph - N/A   Overcast
1:16 AM 41.0 °F 33.1 °F 32.0 °F 70% 30.18 in 10.0 mi ESE 15.0 mph - N/A   Overcast
1:36 AM 39.2 °F 32.0 °F 33.8 °F 81% 30.19 in 10.0 mi SE 11.5 mph - N/A   Mostly Cloudy
1:56 AM 41.0 °F 33.5 °F 33.8 °F 76% 30.19 in 10.0 mi SE 13.8 mph - N/A   Mostly Cloudy
2:16 AM 41.0 °F 32.5 °F 33.8 °F 76% 30.18 in 10.0 mi SE 17.3 mph - N/A   Mostly Cloudy
2:36 AM 41.0 °F 32.2 °F 33.8 °F 76% 30.17 in 10.0 mi SE 18.4 mph - N/A   Overcast
2:56 AM 41.0 °F 31.9 °F 33.8 °F 76% 30.16 in 10.0 mi SE 19.6 mph - N/A   Overcast
3:16 AM 41.0 °F 31.4 °F 33.8 °F 76% 30.15 in 10.0 mi ESE 21.9 mph - N/A   Overcast
3:36 AM 41.0 °F 31.9 °F 33.8 °F 76% 30.15 in 10.0 mi ESE 19.6 mph 24.2 mph N/A   Overcast
3:56 AM 42.8 °F 33.5 °F 33.8 °F 70% 30.14 in 10.0 mi ESE 23.0 mph - N/A   Overcast
4:16 AM 42.8 °F 34.5 °F 33.8 °F 70% 30.14 in 10.0 mi ESE 18.4 mph - N/A   Overcast
4:36 AM 41.0 °F 31.1 °F 33.8 °F 76% 30.12 in 10.0 mi ESE 23.0 mph 26.5 mph N/A   Overcast
4:56 AM 41.0 °F 30.9 °F 33.8 °F 76% 30.09 in 10.0 mi ESE 24.2 mph 29.9 mph N/A   Mostly Cloudy
5:16 AM 41.0 °F 31.1 °F 33.8 °F 76% 30.09 in 10.0 mi ESE 23.0 mph - N/A   Mostly Cloudy
5:36 AM 42.8 °F 33.5 °F 33.8 °F 70% 30.07 in 10.0 mi ESE 23.0 mph 28.8 mph N/A   Mostly Cloudy
5:56 AM 41.0 °F 30.5 °F 33.8 °F 76% 30.05 in 10.0 mi ESE 26.5 mph 33.4 mph N/A   Mostly Cloudy
6:16 AM 42.8 °F 33.1 °F 33.8 °F 70% 30.03 in 10.0 mi ESE 25.3 mph 33.4 mph N/A   Mostly Cloudy
6:36 AM 42.8 °F 33.3 °F 33.8 °F 70% 30.01 in 10.0 mi ESE 24.2 mph 29.9 mph N/A   Overcast
6:56 AM 42.8 °F 33.3 °F 33.8 °F 70% 30.01 in 10.0 mi ESE 24.2 mph 35.7 mph N/A   Overcast
7:16 AM 42.8 °F 32.5 °F 33.8 °F 70% 29.99 in 10.0 mi ESE 28.8 mph 34.5 mph N/A   Overcast
7:36 AM 42.8 °F 32.1 °F 33.8 °F 70% 29.97 in 10.0 mi ESE 31.1 mph 36.8 mph N/A   Overcast
7:56 AM 42.8 °F 32.5 °F 33.8 °F 70% 29.96 in 10.0 mi ESE 28.8 mph 35.7 mph N/A   Overcast
8:16 AM 42.8 °F 31.3 °F 33.8 °F 70% 29.96 in 10.0 mi ESE 36.8 mph - N/A   Overcast
8:36 AM 42.8 °F 32.1 °F 35.6 °F 76% 29.96 in 9.0 mi ESE 31.1 mph 40.3 mph N/A   Mostly Cloudy
8:56 AM 42.8 °F 32.1 °F 33.8 °F 70% 29.94 in 9.0 mi ESE 31.1 mph 40.3 mph N/A   Overcast
9:16 AM 42.8 °F 31.6 °F 33.8 °F 70% 29.92 in 9.0 mi ESE 34.5 mph 40.3 mph N/A   Overcast
9:36 AM 41.0 °F 29.5 °F 33.8 °F 76% 29.90 in 6.0 mi ESE 32.2 mph 42.6 mph N/A   Overcast
9:56 AM 39.2 °F 27.0 °F 33.8 °F 81% 29.89 in 5.0 mi ESE 32.2 mph 43.7 mph N/A   Overcast
10:16 AM 41.0 °F 29.5 °F 33.8 °F 76% 29.86 in 5.0 mi ESE 32.2 mph 39.1 mph N/A   Mostly Cloudy
10:36 AM 41.0 °F 29.5 °F 33.8 °F 76% 29.86 in 5.0 mi ESE 32.2 mph 41.4 mph N/A   Overcast
10:56 AM 39.2 °F 26.6 °F 35.6 °F 87% 29.84 in 3.0 mi ESE 34.5 mph 44.9 mph N/A   Overcast
11:16 AM 41.0 °F 28.8 °F 35.6 °F 81% 29.82 in 2.5 mi ESE 36.8 mph 42.6 mph N/A   Overcast
11:36 AM 41.0 °F 29.1 °F 35.6 °F 81% 29.82 in 3.0 mi ESE 34.5 mph 40.3 mph N/A   Overcast
11:56 AM 41.0 °F 29.3 °F 35.6 °F 81% 29.81 in 2.0 mi ESE 33.4 mph 46.0 mph N/A   Overcast
12:16 PM 41.0 °F 29.5 °F 35.6 °F 81% 29.77 in 3.0 mi ESE 32.2 mph 42.6 mph N/A   Overcast
12:36 PM 41.0 °F 28.8 °F 35.6 °F 81% 29.74 in 2.0 mi ESE 36.8 mph 40.3 mph N/A   Overcast
12:56 PM 41.0 °F 29.3 °F 37.4 °F 87% 29.74 in 1.5 mi SE 33.4 mph 42.6 mph N/A   Overcast
1:16 PM 42.8 °F 32.5 °F 37.4 °F 81% 29.73 in 1.0 mi ESE 28.8 mph 41.4 mph N/A   Overcast
1:36 PM 42.8 °F 32.3 °F 37.4 °F 81% 29.72 in 1.2 mi SE 29.9 mph 40.3 mph N/A   Overcast
1:56 PM 42.8 °F 32.7 °F 37.4 °F 81% 29.71 in 1.5 mi ESE 27.6 mph 40.3 mph N/A   Overcast
2:16 PM 42.8 °F 32.9 °F 39.2 °F 87% 29.69 in 1.5 mi ESE 26.5 mph 31.1 mph N/A   Overcast
2:36 PM 42.8 °F 33.8 °F 39.2 °F 87% 29.68 in 1.5 mi ESE 21.9 mph 33.4 mph N/A   Overcast
2:56 PM 42.8 °F 33.8 °F 39.2 °F 87% 29.67 in 1.5 mi ESE 21.9 mph 28.8 mph N/A   Overcast
3:16 PM 42.8 °F 34.3 °F 39.2 °F 87% 29.65 in 1.5 mi East 19.6 mph 26.5 mph N/A   Overcast
3:36 PM 42.8 °F 34.0 °F 39.2 °F 87% 29.63 in 1.0 mi East 20.7 mph 25.3 mph N/A   Overcast
3:56 PM 42.8 °F 34.0 °F 39.2 °F 87% 29.60 in 0.8 mi East 20.7 mph 26.5 mph N/A   Overcast
4:16 PM 44.6 °F 37.4 °F 39.2 °F 81% 29.60 in 1.0 mi East 16.1 mph 24.2 mph N/A   Overcast
4:36 PM 44.6 °F 37.2 °F 41.0 °F 87% 29.58 in 1.2 mi East 17.3 mph 23.0 mph N/A   Overcast
4:56 PM 44.6 °F 37.2 °F 41.0 °F 87% 29.56 in 1.0 mi East 17.3 mph 21.9 mph N/A   Overcast
5:16 PM 44.6 °F 37.2 °F 41.0 °F 87% 29.55 in 0.8 mi East 17.3 mph 24.2 mph N/A   Overcast
5:36 PM 44.6 °F 37.2 °F 42.8 °F 93% 29.54 in 0.8 mi East 17.3 mph 24.2 mph N/A   Overcast
5:56 PM 46.4 °F 39.5 °F 42.8 °F 87% 29.53 in 1.0 mi East 17.3 mph 34.5 mph N/A   Overcast
6:16 PM 46.4 °F 40.7 °F 42.8 °F 87% 29.53 in 1.2 mi East 12.7 mph 20.7 mph N/A   Overcast
6:36 PM 46.4 °F 39.5 °F 42.8 °F 87% 29.52 in 1.2 mi ESE 17.3 mph 27.6 mph N/A   Overcast
6:56 PM 46.4 °F 38.5 °F 42.8 °F 87% 29.50 in 2.5 mi SE 21.9 mph 28.8 mph N/A   Overcast
7:16 PM 46.4 °F 38.7 °F 42.8 °F 87% 29.48 in 1.2 mi SE 20.7 mph 36.8 mph N/A   Overcast
7:36 PM 46.4 °F 38.1 °F 42.8 °F 87% 29.47 in 1.2 mi SE 24.2 mph 41.4 mph N/A   Overcast
7:56 PM 46.4 °F 37.2 °F 42.8 °F 87% 29.45 in 1.2 mi SSE 29.9 mph 38.0 mph N/A   Overcast
8:16 PM 46.4 °F 38.7 °F 42.8 °F 87% 29.45 in 1.2 mi SE 20.7 mph 32.2 mph N/A   Overcast
8:36 PM 46.4 °F 39.5 °F 42.8 °F 87% 29.46 in 1.2 mi East 17.3 mph 29.9 mph N/A   Overcast
8:56 PM 46.4 °F 40.1 °F 42.8 °F 87% 29.43 in 1.0 mi ENE 15.0 mph 23.0 mph N/A   Overcast
9:16 PM 46.4 °F 39.0 °F 42.8 °F 87% 29.42 in 2.0 mi ESE 19.6 mph 25.3 mph N/A   Overcast
9:36 PM 46.4 °F 39.2 °F 44.6 °F 93% 29.41 in 1.2 mi SE 18.4 mph 28.8 mph N/A   Overcast
9:56 PM 48.2 °F - 44.6 °F 87% 29.40 in 1.0 mi SSE 21.9 mph 39.1 mph N/A   Overcast
10:16 PM 48.2 °F - 44.6 °F 87% 29.39 in 1.8 mi SE 20.7 mph 34.5 mph N/A   Overcast
10:36 PM 48.2 °F - 46.4 °F 93% 29.39 in 3.0 mi SSE 18.4 mph 27.6 mph N/A   Overcast
10:56 PM 48.2 °F - 46.4 °F 93% 29.38 in 3.0 mi SSE 18.4 mph 28.8 mph N/A   Overcast
11:16 PM 48.2 °F - 44.6 °F 87% 29.38 in 1.5 mi SE 9.2 mph 23.0 mph N/A   Overcast
11:36 PM 48.2 °F - 44.6 °F 87% 29.37 in 3.0 mi SSE 25.3 mph 42.6 mph N/A   Overcast
11:56 PM 48.2 °F - 46.4 °F 93% 29.35 in 5.0 mi SSE 33.4 mph 41.4 mph N/A   Overcast